Location: Boca do Mato
(22.9085°S, 43.2930°W)
Time: 17:57:40
(UTC+00:00)

X-37B - Visible Passes

Search period start: 28 September 2020 00:00
Search period end: 08 October 2020 00:00
Orbit: 386 x 387 km, 45.0° (Epoch: 18 September)

Date Brightness Start Highest point End Pass type
(mag) Time Alt. Az. Time Alt. Az. Time Alt. Az.
02 Oct 3.5 07:28:23 10° NNE 07:29:46 12° NE 07:31:10 10° ENE visible
03 Oct 0.7 08:04:23 10° NW 08:07:34 83° NE 08:10:47 10° SE visible
04 Oct 2.2 07:08:08 25° NNE 07:09:04 29° NE 07:11:55 10° ESE visible
05 Oct 1.4 07:45:01 18° W 07:47:01 36° SW 07:50:02 10° SSE visible
06 Oct 1.9 06:49:28 40° SE 06:49:28 40° SE 06:51:39 10° SE visible
07 Oct 2.5 07:26:05 17° SW 07:26:34 17° SW 07:28:49 10° S visible
